Weather History for KSEP - September, 2012

Change the Weather History Date:

Friday, September 28, 2012

  Actual Average Record
Temperature  
Mean Temperature 75 °F -  
Max Temperature 82 °F 84 °F 109 °F (1953)
Min Temperature 68 °F 59 °F 43 °F (1924)
Cooling Degree Days 10    
Growing Degree Days 25 (Base 50)    
Moisture  
Dew Point 65 °F    
Average Humidity 79    
Maximum Humidity 94    
Minimum Humidity 51    
Precipitation  
Precipitation 0.17 in - - ()
Sea Level Pressure  
Sea Level Pressure 30.07 in    
Wind  
Wind Speed 3 mph (North)    
Max Wind Speed 18 mph    
Max Gust Speed 22 mph    
Visibility 9 miles    
Events      
Averages and records for this station are not official NWS values.
T = Trace of Precipitation, MM = Missing Value Source: NWS Daily Summary

Daily Weather History Graph

Daily Weather History Graph

Search for Another Location

Airport or City:

Trip Planner

Search our weather history database for the weather conditions in past years. The results will help you decide how hot, cold, wet, or windy it might be!

Date:

Astronomy

Sep. 28, 2012 Rise Set
Actual Time 7:25 AM CDT 7:20 PM CDT
Civil Twilight 7:00 AM CDT 7:45 PM CDT
Nautical Twilight 6:32 AM CDT 8:13 PM CDT
Astronomical Twilight 6:03 AM CDT 8:42 PM CDT
Moon 6:22 PM CDT (9/28) 5:59 AM CDT (9/28)
Length of Visible Light 12h 44m
Length of Day
11h 55m
Waxing Gibbous, 98% of the Moon is Illuminated
Sep 28
Waxing Gibbous
Sep 29
Full
Oct 8
Last Quarter
Oct 15
New
Oct 21
First Quarter

Hourly Weather History & Observations

Time (CDT) Temp. Heat Index Dew Point Humidity Pressure Visibility Wind Dir Wind Speed Gust Speed Precip Events Conditions
12:15 AM 71.6 °F - 62.6 °F 73% 30.10 in 10.0 mi Calm Calm - N/A   Clear
12:35 AM 69.8 °F - 62.6 °F 78% 30.09 in 10.0 mi Calm Calm - N/A   Clear
12:55 AM 69.8 °F - 62.6 °F 78% 30.09 in 10.0 mi NNW 4.6 mph - N/A   Clear
1:15 AM 69.8 °F - 62.6 °F 78% 30.09 in 10.0 mi Calm Calm - N/A   Clear
1:35 AM 69.8 °F - 62.6 °F 78% 30.08 in 10.0 mi Calm Calm - N/A   Clear
1:55 AM 69.8 °F - 62.6 °F 78% 30.09 in 10.0 mi Calm Calm - N/A   Clear
2:15 AM 69.8 °F - 62.6 °F 78% 30.09 in 10.0 mi North 3.5 mph - N/A   Scattered Clouds
2:35 AM 69.8 °F - 62.6 °F 78% 30.09 in 10.0 mi Calm Calm - N/A   Scattered Clouds
2:55 AM 69.8 °F - 62.6 °F 78% 30.09 in 10.0 mi Calm Calm - N/A   Clear
3:15 AM 69.8 °F - 62.6 °F 78% 30.08 in 10.0 mi Calm Calm - N/A   Clear
3:35 AM 69.8 °F - 62.6 °F 78% 30.07 in 10.0 mi Calm Calm - N/A   Clear
3:55 AM 69.8 °F - 62.6 °F 78% 30.07 in 10.0 mi Calm Calm - N/A   Clear
4:15 AM 69.8 °F - 62.6 °F 78% 30.06 in 10.0 mi Calm Calm - N/A   Clear
4:35 AM 69.8 °F - 62.6 °F 78% 30.07 in 10.0 mi Calm Calm - N/A   Clear
4:55 AM 69.8 °F - 62.6 °F 78% 30.07 in 10.0 mi Calm Calm - N/A   Clear
5:15 AM 69.8 °F - 62.6 °F 78% 30.07 in 10.0 mi Calm Calm - N/A   Clear
5:35 AM 69.8 °F - 62.6 °F 78% 30.07 in 10.0 mi Calm Calm - N/A   Clear
5:55 AM 68.0 °F - 62.6 °F 83% 30.06 in 10.0 mi ENE 3.5 mph - N/A   Clear
6:15 AM 68.0 °F - 62.6 °F 83% 30.07 in 10.0 mi NE 3.5 mph - N/A   Clear
6:35 AM 68.0 °F - 62.6 °F 83% 30.08 in 10.0 mi Calm Calm - N/A   Clear
6:55 AM 68.0 °F - 62.6 °F 83% 30.08 in 10.0 mi Calm Calm - N/A   Scattered Clouds
7:15 AM 68.0 °F - 62.6 °F 83% 30.09 in 10.0 mi Calm Calm - N/A   Scattered Clouds
7:35 AM 68.0 °F - 62.6 °F 83% 30.09 in 10.0 mi Calm Calm - N/A   Scattered Clouds
7:55 AM 68.0 °F - 62.6 °F 83% 30.10 in 10.0 mi Calm Calm - N/A   Scattered Clouds
8:15 AM 69.8 °F - 62.6 °F 78% 30.10 in 10.0 mi Calm Calm - N/A   Scattered Clouds
8:35 AM 69.8 °F - 62.6 °F 78% 30.11 in 10.0 mi Calm Calm - N/A   Mostly Cloudy
8:55 AM 69.8 °F - 62.6 °F 78% 30.11 in 10.0 mi Calm Calm - N/A   Mostly Cloudy
9:15 AM 71.6 °F - 62.6 °F 73% 30.12 in 10.0 mi Calm Calm - N/A   Mostly Cloudy
9:35 AM 73.4 °F - 62.6 °F 69% 30.12 in 10.0 mi SSE 3.5 mph - N/A   Scattered Clouds
9:55 AM 73.4 °F - 64.4 °F 73% 30.12 in 10.0 mi Calm Calm - N/A   Scattered Clouds
10:15 AM 75.2 °F - 66.2 °F 73% 30.12 in 10.0 mi Calm Calm - N/A   Scattered Clouds
10:35 AM 75.2 °F - 64.4 °F 69% 30.12 in 10.0 mi Calm Calm - N/A   Scattered Clouds
10:55 AM 77.0 °F - 66.2 °F 69% 30.13 in 10.0 mi Calm Calm - N/A   Mostly Cloudy
11:15 AM 77.0 °F - 66.2 °F 69% 30.12 in 10.0 mi Calm Calm - N/A   Mostly Cloudy
11:35 AM 78.8 °F - 66.2 °F 65% 30.12 in 10.0 mi SSE 3.5 mph - N/A   Mostly Cloudy
11:55 AM 78.8 °F - 66.2 °F 65% 30.11 in 10.0 mi South 4.6 mph - N/A   Mostly Cloudy
12:15 PM 80.6 °F 82.7 °F 66.2 °F 61% 30.10 in 10.0 mi ESE 4.6 mph - N/A   Mostly Cloudy
12:35 PM 80.6 °F 82.3 °F 64.4 °F 58% 30.09 in 10.0 mi South 8.1 mph - N/A   Mostly Cloudy
12:55 PM 80.6 °F 82.3 °F 64.4 °F 58% 30.09 in 10.0 mi SE 6.9 mph - N/A   Scattered Clouds
1:15 PM 82.4 °F 83.4 °F 62.6 °F 51% 30.08 in 10.0 mi ESE 3.5 mph - N/A   Scattered Clouds
1:35 PM 82.4 °F 83.4 °F 62.6 °F 51% 30.07 in 10.0 mi South 4.6 mph - N/A   Mostly Cloudy
1:55 PM 75.2 °F - 64.4 °F 69% 30.08 in 10.0 mi NNW 18.4 mph - N/A   Mostly Cloudy
2:15 PM 71.6 °F - 64.4 °F 78% 30.07 in 10.0 mi NNW 15.0 mph 21.9 mph N/A   Mostly Cloudy
2:35 PM 71.6 °F - 66.2 °F 83% 30.06 in 10.0 mi NNW 12.7 mph - N/A   Scattered Clouds
2:55 PM 73.4 °F - 64.4 °F 73% 30.05 in 10.0 mi NNW 10.4 mph - N/A   Scattered Clouds
3:15 PM 73.4 °F - 64.4 °F 73% 30.04 in 10.0 mi NNW 8.1 mph - N/A   Scattered Clouds
3:35 PM 73.4 °F - 64.4 °F 73% 30.06 in 10.0 mi ENE 8.1 mph - N/A   Mostly Cloudy
3:55 PM 69.8 °F - 64.4 °F 83% 30.05 in 2.0 mi NNE 8.1 mph 16.1 mph 0.16 in   Overcast
4:15 PM 69.8 °F - 64.4 °F 83% 30.04 in 10.0 mi NNW 9.2 mph - N/A   Mostly Cloudy
4:35 PM 69.8 °F - 64.4 °F 83% 30.04 in 10.0 mi NNW 10.4 mph - 0.01 in   Overcast
4:55 PM 69.8 °F - 66.2 °F 88% 30.02 in 10.0 mi NNW 11.5 mph - 0.01 in   Mostly Cloudy
5:15 PM 69.8 °F - 66.2 °F 88% 30.02 in 10.0 mi NW 6.9 mph - N/A   Mostly Cloudy
5:35 PM 69.8 °F - 66.2 °F 88% 30.02 in 10.0 mi NNW 9.2 mph - N/A   Mostly Cloudy
5:55 PM 69.8 °F - 68.0 °F 94% 30.01 in 10.0 mi NNW 9.2 mph - N/A   Mostly Cloudy
6:15 PM 71.6 °F - 68.0 °F 88% 30.01 in 10.0 mi North 8.1 mph - N/A   Mostly Cloudy
6:35 PM 71.6 °F - 68.0 °F 88% 30.02 in 10.0 mi North 9.2 mph - N/A   Mostly Cloudy
6:55 PM 71.6 °F - 68.0 °F 88% 30.01 in 10.0 mi North 9.2 mph - N/A   Mostly Cloudy
7:15 PM 71.6 °F - 68.0 °F 88% 30.02 in 10.0 mi North 6.9 mph - N/A   Scattered Clouds
7:35 PM 71.6 °F - 68.0 °F 88% 30.02 in 10.0 mi North 5.8 mph - N/A   Mostly Cloudy
7:55 PM 71.6 °F - 68.0 °F 88% 30.02 in 10.0 mi North 6.9 mph - N/A   Scattered Clouds
8:15 PM 71.6 °F - 68.0 °F 88% 30.02 in 10.0 mi North 5.8 mph - N/A   Mostly Cloudy
8:35 PM 71.6 °F - 68.0 °F 88% 30.03 in 5.0 mi North 9.2 mph - N/A   Overcast
8:55 PM 69.8 °F - 68.0 °F 94% 30.04 in 5.0 mi North 11.5 mph - N/A   Overcast
9:15 PM 69.8 °F - 68.0 °F 94% 30.04 in 7.0 mi North 8.1 mph - N/A   Overcast
9:35 PM 69.8 °F - 68.0 °F 94% 30.05 in 7.0 mi North 10.4 mph - N/A   Overcast
9:55 PM 69.8 °F - 66.2 °F 88% 30.05 in 7.0 mi NNE 8.1 mph - N/A   Overcast
10:15 PM 69.8 °F - 66.2 °F 88% 30.06 in 7.0 mi North 8.1 mph - N/A   Overcast
10:35 PM 69.8 °F - 66.2 °F 88% 30.06 in 7.0 mi NNE 6.9 mph - N/A   Overcast
10:55 PM 69.8 °F - 66.2 °F 88% 30.06 in 5.0 mi NNE 5.8 mph - N/A   Overcast
11:15 PM 69.8 °F - 66.2 °F 88% 30.06 in 5.0 mi North 3.5 mph - N/A   Overcast
11:35 PM 69.8 °F - 66.2 °F 88% 30.06 in 5.0 mi North 5.8 mph - N/A   Mostly Cloudy
11:55 PM 69.8 °F - 66.2 °F 88% 30.05 in 5.0 mi NNW 5.8 mph - N/A   Overcast